+ View the NASA Portal
+ Center for Near-Earth Object Studies
IMPORTANT:
The SSD Announcement email list is now available. Major changes are coming in the near future, including possible hostname and/or URL changes. To be notified of such changes, subscribe to this email list.
Please visit
this page
for more details.
Don't show this message again
JPL Small-Body Database Browser
Search:
[
help
]
305179 (2007 VW295)
Classification:
Main-belt Asteroid
SPK-ID:
2305179
[
Ephemeris
|
Orbit Diagram
|
Orbital Elements
|
Mission Design
|
Physical Parameters
|
Discovery Circumstances
|
Close-Approach Data
]
[ show orbit diagram ]
Orbital Elements at Epoch 2458600.5 (2019-Apr-27.0) TDB
Reference:
JPL 15
(heliocentric ecliptic J2000)
Element
Value
Uncertainty (1-sigma)
Units
e
.1753067766006625
7.2368e-08
a
2.58257220759235
1.9672e-08
au
q
2.129829798540879
1.9866e-07
au
i
9.464446874164439
4.9177e-06
deg
node
138.2577246941007
3.1432e-05
deg
peri
241.4887033850467
3.6304e-05
deg
M
298.7157494237679
1.7439e-05
deg
t
p
2458858.561677068288
(2020-Jan-10.06167707)
7.5359e-05
TDB
period
1515.922979738839
4.15
1.7321e-05
4.742e-08
d
yr
n
.2374790835758821
2.7134e-09
deg/d
Q
3.035314616643822
2.3121e-08
au
Orbit Determination Parameters
# obs. used (total)
333
data-arc span
4396 days (12.04 yr)
first obs. used
2007-10-16
last obs. used
2019-10-29
planetary ephem.
DE431
SB-pert. ephem.
SB431-N16
condition code
0
norm. resid. RMS
.59114
source
ORB
producer
Otto Matic
solution date
2019-Nov-08 07:38:40
Additional Information
Earth MOID
= 1.1489 au
Jupiter MOID
= 2.47117 au
T_jup
= 3.383
[ show covariance matrix ]
[
Ephemeris
|
Orbit Diagram
|
Orbital Elements
|
Mission Design
|
Physical Parameters
|
Discovery Circumstances
|
Close-Approach Data
]
Physical Parameter Table
Parameter
Symbol
Value
Units
Sigma
Reference
Notes
absolute magnitude
H
16.9
n/a
MPO402166
305179 (2007 VW295)
Discovered 2007-Nov-14 by Mt. Lemmon Survey at Mount Lemmon
Reference:
20111110/Numbers.arc
Last Updated:
2011-11-14
[ hide close-approach data ]
Close-Approach Data
...sorted by
Date/Time (TDB)
Date/Time (TDB)
Time Uncertainty
(days_HH:MM)
Body
Nominal Distance (au)
Minimum Distance (au)
Maximum Distance (au)
V-relative (km/s)
V-infinity (km/s)
JD (TDB)
Time Uncertainty (minutes)
Semi-major axis (km)
Semi-minor axis (km)
range-LOV angle (deg)
N-sigma
BP
Orbit Ref.
Reference
Modified
2038-Jan-13 01:51
00:17
Europ
0.0363935121659495
0.0363903550341793
0.0363966704442557
2.16916132996825
2.1691611953339
2465436.577082451
16.6132470510124
488.445229888688
113.007360524013
-76.7362580542462
46855.9685107174
T
15
CATAB v2.0f-lin.ifort 2019-Nov-08 07:38:42
2019-Nov-08 07:39
2098-Feb-19 09:53
00:09
Iris
0.021974311539289
0.0219238339721046
0.022024805426989
4.47093049633739
4.47093043782338
2487388.911612374
8.5040480424059
2687.72442757515
63.0844603823546
20.5725215900136
18337.248606625
T
15
CATAB v2.0f-lin.ifort 2019-Nov-08 07:38:42
2019-Nov-08 07:39
[
Ephemeris
|
Orbit Diagram
|
Orbital Elements
|
Mission Design
|
Physical Parameters
|
Discovery Circumstances
|
Close-Approach Data
]
2019-Dec-07 07:17 UT
(server date/time)
Site Manager:
Ryan S. Park
Webmaster
:
Alan B. Chamberlin